Location: Berduj
(43.0019°N, 22.3781°E)
Time: 18:57:31
(UTC+00:00)

Cosmos 1833 Rocket - Visible Passes

Search period start: 27 February 2021 00:00
Search period end: 09 March 2021 00:00
Orbit: 833 x 839 km, 71.0° (Epoch: 27 February)

Date Brightness Start Highest point End Pass type
(mag) Time Alt. Az. Time Alt. Az. Time Alt. Az.
27 Feb 4.3 02:00:15 26° NNE 02:00:15 26° NNE 02:02:40 10° NNE visible
27 Feb 4.6 03:41:57 12° NW 03:42:10 12° NW 03:44:25 10° NNW visible
28 Feb 4.6 01:44:00 22° NNE 01:44:00 22° NNE 01:45:57 10° NNE visible
28 Feb 4.6 03:25:41 13° NW 03:25:41 13° NW 03:27:56 10° NNW visible
01 Mar 4.9 01:27:42 19° NNE 01:27:42 19° NNE 01:29:13 10° NNE visible
01 Mar 4.6 03:09:24 14° NNW 03:09:24 14° NNW 03:11:25 10° NNW visible
02 Mar 5.1 01:11:23 16° NNE 01:11:23 16° NNE 01:12:29 10° NNE visible
02 Mar 4.7 02:53:04 14° NNW 02:53:04 14° NNW 02:54:52 10° N visible
03 Mar 5.3 00:55:02 14° NNE 00:55:02 14° NNE 00:55:45 10° NNE visible
03 Mar 4.8 02:36:43 14° NNW 02:36:43 14° NNW 02:38:17 10° N visible
04 Mar 5.5 00:38:39 12° NNE 00:38:39 12° NNE 00:39:00 10° NNE visible
04 Mar 4.8 02:20:20 14° NNW 02:20:20 14° NNW 02:21:41 10° N visible
05 Mar 4.9 02:03:56 14° NNW 02:03:56 14° NNW 02:05:05 10° N visible
06 Mar 5.0 01:47:31 13° N 01:47:31 13° N 01:48:27 10° N visible
07 Mar 5.1 01:31:04 13° N 01:31:04 13° N 01:31:49 10° N visible
08 Mar 5.2 01:14:36 12° N 01:14:36 12° N 01:15:11 10° N visible
